Tracking 19969 objects as of 13-Nov-2019
Live streaming from Space Station
objects crossing your sky now
Track the group of recently launched Starlink satellites

SL-14 DEB

Track SL-14 DEB now!
10-day predictions


NORAD ID: 26023
Int'l Code: 1991-068AJ
Perigee: 1,458.7 km
Apogee: 1,478.6 km
Inclination: 82.6 °
Period: 115.1 minutes
Semi major axis: 7839 km
RCS: 0.0267 m2 (small)
Launch date: September 28, 1991
Source: Commonwealth of Independent States (former USSR) (CIS)
Launch site: PLESETSK MISSILE AND SPACE COMPLEX (PKMTR)

Note: This is SATELLITE DEBRIS
aabbcc
Your satellite tracking list
Your tracking list is empty




NASA's NSSDC Master Catalog

Two Line Element Set (TLE):
1 26023U 91068AJ  19314.64171517 -.00000215 +00000-0 -14686-2 0  9994
2 26023 082.5800 200.2836 0012698 254.1554 132.9353 12.50707605285713
Source of the keplerian elements: AFSPC